Meteo Giornale » Osservazioni meteo Italia » Venezia-Tessera

ore: 16:50 - Osservazioni Meteo Venezia-Tessera
Lat. 45° 30' N Lon. 12° 20' E Alt. 2 metri s.l.m.

sereno Europe/Rome

6 °C

Sereno

Temp. 24 Ore

-2 °C

9 °C

Nord

3.7 Km/h

Dew point -2 °C

Umidità 56 %

Visibilità  10 Km

Il sole sorge alle ore 07:39

Il sole tramonta alle ore 17:05

Data e Ora Cielo e Fenomeni T °C DP °C Um. % Pres. hPa Vis. km Vento km/h
Oggi h: 16:50 sereno Sereno 6 -2 56 1027 10 N 3.7
Oggi h: 16:20 sereno Sereno 8 -5 39 1027 10 E 9.3
Oggi h: 15:50 sereno Sereno 8 -6 36 1027 10 E/NE 9.3
Oggi h: 15:20 sereno Sereno 9 -7 31 1027 10 E/NE 9.3
Oggi h: 14:50 sereno Sereno 9 -7 31 1027 10 E 11.1
Oggi h: 14:20 sereno Sereno 9 -8 29 1027 10 E 11.1
Oggi h: 13:50 sereno Sereno 9 -7 31 1027 10 E 9.3
Oggi h: 13:20 sereno Sereno 9 -8 29 1028 10 E 7.4
Oggi h: 12:50 sereno Sereno 8 -8 31 1028 10 E/NE 9.3
Oggi h: 12:20 sereno Sereno 8 -6 36 1028 10 E/NE 9.3
Oggi h: 11:50 sereno Sereno 7 -5 42 1029 10 N 9.3
Oggi h: 11:20 sereno Sereno 5 -5 48 1029 10 N 9.3
Oggi h: 10:50 sereno Sereno 4 -5 51 1029 10 N/NE 9.3
Oggi h: 10:20 sereno Sereno 3 -5 55 1029 10 NE 9.3
Oggi h: 09:50 sereno Sereno 2 -6 55 1029 10 NE 9.3
Oggi h: 09:20 sereno Sereno 1 -6 59 1029 10 N 11.1
Oggi h: 08:50 sereno Sereno -0 -6 63 1029 10 N 13
Oggi h: 08:20 sereno Sereno -1 -6 68 1029 10 N 14.8
Oggi h: 07:50 sereno Sereno -0 -6 63 1028 10 N 14.8
Oggi h: 07:20 sereno Sereno -0 -6 63 1029 10 N 5.5
Oggi h: 06:50 sereno Sereno -0 -6 63 1028 10 N 16.7
Oggi h: 06:20 sereno Sereno -1 -6 68 1028 10 N 18.5
Oggi h: 05:50 sereno Sereno -0 -6 63 1028 10 N 16.7
Oggi h: 05:20 sereno Sereno -1 -6 68 1029 10 N 13
Oggi h: 04:50 sereno Sereno -1 -6 68 1029 10 N/NO 14.8
Oggi h: 04:20 sereno Sereno -1 -5 74 1029 10 N/NO 13
Oggi h: 03:50 sereno Sereno -1 -5 74 1029 10 N/NO 14.8
Oggi h: 03:20 sereno Sereno -2 -5 79 1029 10 N 14.8
Oggi h: 02:50 sereno Sereno -2 -5 79 1029 10 NO 9.3
Oggi h: 02:20 sereno Sereno -1 -5 74 1029 10 NO 9.3
Oggi h: 01:50 sereno Sereno -2 -5 79 1029 10 N 13
Oggi h: 01:20 sereno Sereno -2 -5 79 1029 10 N 13
Oggi h: 00:50 sereno Sereno -1 -5 74 1029 10 N 9.3
Oggi h: 00:20 sereno Sereno -0 -5 68 1029 10 N 9.3
Ieri h: 23:50 sereno Sereno -0 -5 68 1029 10 N 9.3
Ieri h: 23:20 sereno Sereno 0 -5 68 1030 10 NO 7.4
Ieri h: 22:50 sereno Sereno 0 -4 74 1030 10 O 7.4
Ieri h: 22:20 sereno Sereno -0 -3 80 1029 10 N 3.7
Ieri h: 21:50 sereno Sereno -0 -3 80 1029 10 NO 9.3
Ieri h: 21:20 sereno Sereno 0 -3 80 1029 10 NO 7.4
Ieri h: 20:50 sereno Sereno -0 -3 80 1029 10 O/NO 9.3
Ieri h: 20:20 sereno Sereno 0 -3 80 1029 10 NO 7.4
Ieri h: 19:50 sereno Sereno 1 -3 74 1029 10 O 7.4
Ieri h: 19:20 sereno Sereno 3 -2 69 1029 10 O/SO 9.3
Ieri h: 18:50 sereno Sereno 2 -1 80 1029 10 O/SO 9.3
Ieri h: 18:20 sereno Sereno 3 -0 80 1029 10 O/SO 9.3
Ieri h: 17:50 sereno Sereno 3 -0 80 1029 10 SO 7.4
Ieri h: 17:20 sereno Sereno 2 -1 80 1029 10 SO 9.3
Ieri h: 16:50 sereno Sereno 4 -1 69 1029 10 SO 11.1